Content
SEND FEEDBACK

Daily
Averages
Monthly
Summary
United States of America

ST. LOUIS, MISSOURI


Home > North America > United States > Missouri
Elevation: 163 meters     Latitude: 38 45N     Longitude: 090 22W

WEATHER
 
SELECT A DAY
Number of Records: 194,495;   Date Range: 1/1/95 - 4/22/14
 
SHARE

PRINT THIS DATA

[ ← Previous Day ]
WEATHER ALMANAC - 5 MARCH, 2013
[ Next Day → ]
[ °F ]   °C
Weather ElementAverageHighLow
Temperature1.5 °C5 °C (2:54 am)-1 °C (6:20 pm)
Dewpoint-2.6 °C2 °C (1:29 am)-6.1 °C (2:54 pm)
Humidity75.4 %92 % (7:54 am)55 % (1:54 pm)
Barometer1015.6 hPa1021.7 hPa (11:54 pm)1009.1 hPa (2:54 am)
Wind Speed26.2 km/h44.4 km/h (12:56 pm)
Wind Gust68.6 km/h (2:54 pm)
Weather ElementAverage
Visibility11.1 km
Wind DirectionW (270.5 °)

Weather ElementTotal
Precipitation5.08 mm
Heating Degree Days16.3 (Base 18.3)
Averaged from 38 records on 5 March, 2013
WEATHER CONDITIONS BREAKOUT
WIND DIRECTION BREAKOUT
WEATHER BY HOUR - 5 MARCH, 2013
[ °F ]   °C
Local TimeTemperatureDewpointHumidityBarometerVisibilityWind DirectionWind SpeedGust SpeedPrecipitationEventsConditions
1:29 AM4 °C2 °C87 %1009.8 hPa16.1 kmCalmOvercast
1:54 AM4.4 °C1.7 °C83 %1009.8 hPa16.1 kmCalmOvercast
2:54 AM5 °C0.6 °C73 %1009.1 hPa16.1 kmNNE (20°)5.6 km/hOvercast
3:54 AM3.9 °C0.6 °C79 %1010.5 hPa16.1 kmWNW (300°)11.1 km/hOvercast
4:38 AM4 °C0 °C75 %1010.5 hPa16.1 kmWNW (300°)13 km/hOvercast
4:54 AM3.3 °C-0.6 °C76 %1011.2 hPa16.1 kmWNW (290°)16.7 km/hOvercast
5:54 AM1.7 °C0 °C89 %1012.5 hPa8 kmWNW (290°)14.8 km/h0.51 mmRainLight Rain
6:49 AM1 °C-1 °C87 %1012.2 hPa3.2 kmWNW (290°)18.5 km/h33.3 km/h0.25 mmSnowLight Snow
6:54 AM1.1 °C-0.6 °C89 %1012.9 hPa2.4 kmWest (280°)16.7 km/h0.25 mmSnowLight Snow
7:54 AM0.6 °C-0.6 °C92 %1013.2 hPa2.4 kmWest (280°)20.4 km/h0.76 mmSnowLight Snow
8:41 AM1 °C-1 °C87 %1013.5 hPa0.8 kmWNW (290°)18.5 km/h0.51 mmFog-SnowSnow
8:43 AM1 °C-1 °C87 %1013.5 hPa0.8 kmWNW (290°)18.5 km/h0.51 mmFog-SnowSnow
8:54 AM0.6 °C-0.6 °C92 %1014.2 hPa0.8 kmWNW (290°)20.4 km/h0.76 mmFog-SnowSnow
9:54 AM0.6 °C-0.6 °C92 %1014.6 hPa1.3 kmWNW (300°)24.1 km/h37 km/h1.02 mmSnowLight Snow
10:29 AM1 °C-1 °C87 %1013.9 hPa9.7 kmWNW (300°)20.4 km/h0.25 mmOvercast
10:54 AM1.1 °C-2.2 °C79 %1014.6 hPa16.1 kmWNW (290°)31.5 km/h46.3 km/h0.25 mmOvercast
11:54 AM1.7 °C-1.7 °C78 %1015.2 hPa16.1 kmWNW (290°)25.9 km/h42.6 km/hOvercast
12:54 PM2.8 °C-2.2 °C70 %1015.6 hPa16.1 kmWNW (290°)40.7 km/h51.8 km/hMostly Cloudy
12:56 PM3 °C-3 °C65 %1014.9 hPa16.1 kmWNW (290°)44.4 km/h59.2 km/hMostly Cloudy
1:54 PM3.3 °C-5 °C55 %1015.6 hPa16.1 kmWNW (290°)44.4 km/h64.9 km/hMostly Cloudy
2:54 PM1.1 °C-6.1 °C59 %1016.9 hPa16.1 kmWNW (290°)44.4 km/h68.6 km/hOvercast
3:54 PM1.1 °C-6.1 °C59 %1017.3 hPa16.1 kmWNW (290°)42.6 km/h55.5 km/hOvercast
4:54 PM1.1 °C-6.1 °C59 %1017.6 hPa16.1 kmWest (280°)29.6 km/h44.4 km/hOvercast
5:54 PM1.1 °C-5 °C64 %1017.9 hPa4.8 kmWNW (300°)24.1 km/h44.4 km/h0 mmSnowLight Snow
6:01 PM1 °C-4 °C70 %1017.3 hPa4 kmWNW (300°)33.3 km/h46.3 km/h0 mmSnowLight Snow
6:04 PM1 °C-4 °C70 %1017.6 hPa3.2 kmWNW (300°)35.2 km/h50.1 km/h0 mmSnowLight Snow
6:08 PM0 °C-3 °C80 %1017.6 hPa2.9 kmWNW (290°)33.3 km/h50.1 km/h0 mmSnowLight Snow
6:20 PM-1 °C-3 °C86 %1017.9 hPa4.8 kmWest (280°)33.3 km/h44.4 km/h0 mmSnowLight Snow
6:54 PM0 °C-3.9 °C75 %1019 hPa16.1 kmWNW (290°)29.6 km/h46.3 km/h0 mmOvercast
7:32 PM0 °C-4 °C75 %1018.6 hPa8 kmWNW (300°)29.6 km/h48.1 km/h0 mmSnowLight Snow
7:54 PM0 °C-3.9 °C75 %1019.3 hPa14.5 kmWNW (290°)25.9 km/h37 km/h0 mmOvercast
8:36 PM1 °C-4 °C70 %1019 hPa16.1 kmWNW (300°)33.3 km/h42.6 km/hOvercast
8:43 PM1 °C-4 °C70 %1019 hPa16.1 kmWNW (300°)38.9 km/h55.5 km/hOvercast
8:54 PM1.1 °C-4.4 °C67 %1020 hPa16.1 kmWNW (300°)37 km/h51.8 km/hOvercast
9:28 PM1 °C-5 °C65 %1019.6 hPa16.1 kmWNW (300°)33.3 km/h48.1 km/hOvercast
9:54 PM0.6 °C-4.4 °C70 %1020.7 hPa11.3 kmWNW (300°)25.9 km/h50.1 km/h0 mmSnowLight Snow
10:54 PM0.6 °C-5 °C66 %1021 hPa16.1 kmWNW (300°)31.5 km/h44.4 km/h0 mmOvercast
11:54 PM0.6 °C-5.6 °C64 %1021.7 hPa16.1 kmWNW (300°)29.6 km/h46.3 km/hOvercast
Hourly data recorded from KSUS, located 0 kilometers away from St. Louis, Missouri







STORIES FROM OUR PARTNERS